TimeCST,TemperatureF,Dew PointF,Humidity,Sea Level PressureIn,VisibilityMPH,Wind Direction,Wind SpeedMPH,Gust SpeedMPH,PrecipitationIn,Events,Conditions,WindDirDegrees,DateUTC
12:53 AM,36.0,28.0,73,30.39,10.0,South,8.1,-,N/A,,Clear,190,2013-01-18 06:53:00
1:53 AM,36.0,27.0,70,30.39,10.0,South,8.1,-,N/A,,Clear,180,2013-01-18 07:53:00
2:53 AM,37.0,27.0,67,30.38,10.0,South,8.1,-,N/A,,Clear,190,2013-01-18 08:53:00
3:53 AM,37.0,27.0,67,30.36,10.0,South,6.9,-,N/A,,Clear,190,2013-01-18 09:53:00
4:53 AM,36.0,27.0,70,30.33,10.0,South,9.2,-,N/A,,Clear,190,2013-01-18 10:53:00
5:53 AM,36.0,27.0,70,30.32,10.0,SSW,10.4,17.3,N/A,,Clear,200,2013-01-18 11:53:00
6:53 AM,35.1,27.0,72,30.31,10.0,South,11.5,-,N/A,,Clear,180,2013-01-18 12:53:00
7:53 AM,36.0,27.0,70,30.31,10.0,South,9.2,-,N/A,,Clear,190,2013-01-18 13:53:00
8:53 AM,39.9,28.0,63,30.28,10.0,South,15.0,20.7,N/A,,Clear,190,2013-01-18 14:53:00
9:53 AM,44.1,28.9,55,30.27,10.0,SSW,17.3,28.8,N/A,,Clear,200,2013-01-18 15:53:00
10:53 AM,50.0,30.0,46,30.23,10.0,SSW,21.9,31.1,N/A,,Clear,210,2013-01-18 16:53:00
11:53 AM,53.1,30.0,41,30.18,10.0,SSW,23.0,31.1,N/A,,Clear,210,2013-01-18 17:53:00
12:53 PM,57.9,28.9,33,30.12,10.0,SSW,24.2,34.5,N/A,,Clear,210,2013-01-18 18:53:00
1:53 PM,60.1,28.9,31,30.09,10.0,SSW,21.9,34.5,N/A,,Clear,210,2013-01-18 19:53:00
2:53 PM,61.0,28.9,30,30.06,10.0,SW,23.0,31.1,N/A,,Clear,220,2013-01-18 20:53:00
3:53 PM,60.1,28.9,31,30.05,10.0,SW,12.7,26.5,N/A,,Clear,220,2013-01-18 21:53:00
4:53 PM,59.0,28.9,32,30.06,10.0,SW,20.7,28.8,N/A,,Clear,220,2013-01-18 22:53:00
5:53 PM,55.0,30.0,38,30.06,10.0,SSW,8.1,-,N/A,,Clear,210,2013-01-18 23:53:00
6:53 PM,54.0,30.0,40,30.06,10.0,SSW,15.0,20.7,N/A,,Clear,210,2013-01-19 00:53:00
7:53 PM,53.1,30.0,41,30.07,10.0,SSW,13.8,-,N/A,,Clear,210,2013-01-19 01:53:00
8:53 PM,51.1,30.0,44,30.06,10.0,SSW,13.8,23.0,N/A,,Clear,200,2013-01-19 02:53:00
9:53 PM,50.0,30.0,46,30.04,10.0,SSW,13.8,-,N/A,,Clear,200,2013-01-19 03:53:00
10:53 PM,46.0,30.0,54,30.02,10.0,South,12.7,-,N/A,,Clear,190,2013-01-19 04:53:00
11:53 PM,45.0,30.0,56,30.01,10.0,SSW,9.2,19.6,N/A,,Clear,200,2013-01-19 05:53:00